Location: Cahas Mountain Overlook
(37.0833°N, 80.1000°W)
Time: 18:44:14
(UTC-04:00)

Explorer 7 - Pass Details

Date: 17 February 2026
Orbit: 430 x 541 km, 50.2° (Epoch: 13 March)

Event Time Altitude Azimuth Distance (km) Brightness Sun altitude
Rises 16:33:21 0° 274° (W) 2,434 11.1 15.7°
Reaches altitude 10° 16:35:56 10° 294° (WNW) 1,584 9.8 15.3°
Maximum altitude 16:38:29 18° 339° (NNW) 1,192 8.6 14.8°
Drops below altitude 10° 16:41:07 10° 25° (NNE) 1,633 8.8 14.3°
Sets 16:43:50 0° 45° (NE) 2,540 9.6 13.9°
